| time (UTC) | temp F | wind direction | speed knots | gust knots | rain 1hr in | rain 24hr in | rain mn in | humidity % | barometer mb |
| 20260506112342 | 52 | 5 | 4.3 | 13.9 | 0.00 | 0.03 | 0.03 | 82 | 1012.7 |
| 20260506111353 | 52 | 5 | 6.1 | 13.9 | 0.00 | 0.03 | 0.03 | 82 | 1012.6 |
| 20260506110401 | 52 | 344 | 5.2 | 13.0 | 0.00 | 0.03 | 0.03 | 83 | 1012.6 |
| 20260506105350 | 51 | 61 | 5.2 | 13.0 | 0.00 | 0.03 | 0.03 | 83 | 1012.7 |
| 20260506104411 | 52 | 350 | 3.5 | 11.3 | 0.00 | 0.03 | 0.03 | 82 | 1012.7 |
| 20260506103346 | 52 | 316 | 4.3 | 11.3 | 0.00 | 0.03 | 0.03 | 82 | 1012.7 |
| 20260506102312 | 52 | 59 | 4.3 | 10.4 | 0.00 | 0.03 | 0.03 | 82 | 1012.6 |
| 20260506100202 | 51 | 5 | 5.2 | 13.0 | 0.00 | 0.03 | 0.03 | 81 | 1012.6 |
| 20260506095215 | 51 | 29 | 5.2 | 13.0 | 0.00 | 0.03 | 0.03 | 81 | 1012.6 |
| 20260506093027 | 52 | 24 | 5.2 | 13.9 | 0.00 | 0.03 | 0.03 | 80 | 1012.6 |
| 20260506091958 | 51 | 11 | 6.1 | 13.9 | 0.00 | 0.03 | 0.03 | 81 | 1012.5 |
| 20260506091016 | 51 | 17 | 6.1 | 13.9 | 0.00 | 0.03 | 0.03 | 81 | 1012.5 |
| 20260506084809 | 51 | 22 | 5.2 | 13.9 | 0.00 | 0.03 | 0.03 | 84 | 1012.4 |
| 20260506083813 | 51 | 14 | 6.1 | 16.5 | 0.00 | 0.03 | 0.03 | 84 | 1012.3 |
| 20260506082743 | 50 | 5 | 7.8 | 16.5 | 0.00 | 0.03 | 0.03 | 83 | 1012.3 |
| 20260506080700 | 50 | 17 | 6.1 | 13.9 | 0.00 | 0.03 | 0.03 | 85 | 1012.3 |
| 20260506072538 | 49 | 9 | 4.3 | 15.6 | 0.00 | 0.03 | 0.03 | 86 | 1011.9 |
| 20260506071550 | 48 | 40 | 6.1 | 15.6 | 0.00 | 0.03 | 0.03 | 87 | 1011.9 |
| 20260506070535 | 49 | 49 | 5.2 | 12.2 | 0.00 | 0.03 | 0.03 | 87 | 1011.9 |
| 20260506061615 | 47 | 35 | 0.9 | 7.0 | 0.05 | 0.03 | 0.03 | 86 | 1011.5 |
| 20260506060636 | 48 | 35 | 1.7 | 7.0 | 0.17 | 0.02 | 0.02 | 85 | 1011.4 |
| 20260506051338 | 48 | 350 | 1.7 | 7.0 | 0.00 | 0.00 | 0.00 | 86 | 1011.4 |
| 20260506050305 | 48 | 15 | 2.6 | 7.0 | 0.00 | 0.00 | 0.00 | 86 | 1011.5 |
| 20260506044238 | 47 | 355 | 0.9 | 3.5 | 0.00 | 0.00 | 0.00 | 86 | 1011.4 |
| 20260506043206 | 47 | 301 | 0.9 | 7.0 | 0.00 | 0.00 | 0.00 | 86 | 1011.4 |
| 20260506042154 | 47 | 304 | 1.7 | 7.0 | 0.00 | 0.00 | 0.00 | 86 | 1011.4 |
| 20260506041126 | 47 | 313 | 2.6 | 7.0 | 0.00 | 0.00 | 0.00 | 86 | 1011.4 |
| 20260506040119 | 47 | 351 | 1.7 | 7.0 | 0.00 | 0.00 | 0.00 | 86 | 1011.5 |
| 20260506035116 | 47 | 339 | 2.6 | 7.0 | 0.00 | 0.00 | 0.00 | 86 | 1011.5 |
| 20260506032948 | 48 | 351 | 2.6 | 8.7 | 0.00 | 0.00 | 0.00 | 86 | 1011.5 |
| 20260506031943 | 47 | 12 | 0.0 | 3.5 | 0.00 | 0.00 | 0.00 | 86 | 1011.6 |
| 20260506030932 | 47 | 301 | 0.0 | 1.7 | 0.00 | 0.00 | 0.00 | 86 | 1011.7 |
| 20260506025953 | 47 | 0 | 0.9 | 2.6 | 0.00 | 0.00 | 0.00 | 86 | 1011.8 |
| 20260506024925 | 47 | 26 | 0.9 | 3.5 | 0.00 | 0.00 | 0.00 | 86 | 1011.8 |
| 20260506023904 | 46 | 34 | 0.9 | 3.5 | 0.00 | 0.00 | 0.00 | 86 | 1011.9 |
| 20260506021734 | 46 | 26 | 0.0 | 2.6 | 0.00 | 0.00 | 0.00 | 86 | 1011.9 |
| 20260506015558 | 46 | 321 | 0.9 | 2.6 | 0.00 | 0.00 | 0.00 | 85 | 1012.1 |
| 20260506014542 | 46 | 320 | 0.0 | 3.5 | 0.00 | 0.00 | 0.00 | 85 | 1012.0 |
| 20260506013516 | 46 | 5 | 0.9 | 5.2 | 0.00 | 0.00 | 0.00 | 85 | 1012.1 |
| 20260506012525 | 47 | 334 | 0.9 | 5.2 | 0.00 | 0.00 | 0.00 | 85 | 1012.1 |
| 20260506011511 | 47 | 296 | 1.7 | 5.2 | 0.00 | 0.00 | 0.00 | 85 | 1012.2 |
| 20260506005309 | 47 | 344 | 1.7 | 6.1 | 0.00 | 0.00 | 0.00 | 84 | 1012.2 |
| 20260506004239 | 47 | 333 | 1.7 | 8.7 | 0.00 | 0.00 | 0.00 | 84 | 1012.3 |
| 20260506002128 | 48 | 342 | 2.6 | 8.7 | 0.00 | 0.00 | 0.00 | 84 | 1012.4 |
| 20260506001143 | 48 | 40 | 2.6 | 8.7 | 0.00 | 0.00 | 0.00 | 83 | 1012.5 |
| 20260506000131 | 48 | 18 | 2.6 | 8.7 | 0.00 | 0.00 | 0.00 | 83 | 1012.6 |
| 20260505235105 | 48 | 5 | 2.6 | 7.0 | 0.00 | 0.00 | 0.00 | 83 | 1012.6 |
| 20260505234058 | 48 | 49 | 1.7 | 7.8 | 0.00 | 0.00 | 0.00 | 82 | 1012.7 |
| 20260505233117 | 49 | 27 | 2.6 | 7.8 | 0.00 | 0.00 | 0.00 | 81 | 1012.8 |
| 20260505232110 | 49 | 9 | 0.9 | 7.8 | 0.00 | 0.00 | 0.00 | 81 | 1012.8 |
| 20260505231044 | 49 | 5 | 1.7 | 7.8 | 0.00 | 0.00 | 0.00 | 81 | 1012.9 |
| 20260505230025 | 49 | 298 | 1.7 | 7.8 | 0.00 | 0.00 | 0.00 | 81 | 1013.0 |
| 20260505225008 | 49 | 35 | 2.6 | 7.8 | 0.00 | 0.00 | 0.00 | 80 | 1013.0 |
| 20260505223950 | 49 | 339 | 1.7 | 6.1 | 0.00 | 0.00 | 0.00 | 81 | 1013.1 |
| 20260505222920 | 49 | 355 | 2.6 | 9.6 | 0.00 | 0.00 | 0.00 | 80 | 1013.2 |
| 20260505221913 | 49 | 5 | 3.5 | 9.6 | 0.00 | 0.00 | 0.00 | 80 | 1013.1 |
| 20260505220905 | 50 | 345 | 2.6 | 11.3 | 0.00 | 0.00 | 0.00 | 81 | 1013.2 |
| 20260505215842 | 50 | 0 | 3.5 | 11.3 | 0.00 | 0.00 | 0.00 | 81 | 1013.3 |
| 20260505214836 | 50 | 31 | 2.6 | 8.7 | 0.00 | 0.00 | 0.00 | 81 | 1013.3 |
| 20260505213845 | 50 | 11 | 2.6 | 8.7 | 0.00 | 0.00 | 0.00 | 81 | 1013.3 |
| 20260505212903 | 50 | 69 | 3.5 | 10.4 | 0.00 | 0.00 | 0.00 | 81 | 1013.2 |
| 20260505211840 | 50 | 47 | 4.3 | 10.4 | 0.00 | 0.00 | 0.00 | 81 | 1013.3 |
| 20260505210807 | 50 | 67 | 3.5 | 10.4 | 0.00 | 0.00 | 0.00 | 82 | 1013.3 |
| 20260505205829 | 50 | 57 | 4.3 | 11.3 | 0.00 | 0.00 | 0.00 | 82 | 1013.2 |
| 20260505203650 | 51 | 41 | 4.3 | 11.3 | 0.00 | 0.00 | 0.00 | 83 | 1013.2 |
| 20260505202701 | 51 | 55 | 5.2 | 11.3 | 0.00 | 0.00 | 0.00 | 83 | 1013.1 |
| 20260505201705 | 51 | 24 | 3.5 | 9.6 | 0.00 | 0.00 | 0.00 | 83 | 1013.1 |
| 20260505200631 | 51 | 20 | 3.5 | 10.4 | 0.00 | 0.00 | 0.00 | 83 | 1013.1 |
| 20260505195607 | 51 | 38 | 4.3 | 10.4 | 0.00 | 0.00 | 0.00 | 83 | 1013.0 |
| 20260505194537 | 51 | 48 | 4.3 | 9.6 | 0.00 | 0.00 | 0.00 | 82 | 1012.8 |
| 20260505193522 | 51 | 22 | 5.2 | 13.0 | 0.00 | 0.00 | 0.00 | 82 | 1012.8 |
| 20260505192506 | 51 | 47 | 3.5 | 13.0 | 0.00 | 0.00 | 0.00 | 83 | 1012.7 |
| 20260505191433 | 51 | 28 | 3.5 | 10.4 | 0.00 | 0.00 | 0.00 | 83 | 1012.6 |
| 20260505185310 | 51 | 25 | 4.3 | 10.4 | 0.00 | 0.00 | 0.00 | 82 | 1012.4 |
| 20260505183146 | 52 | 38 | 4.3 | 10.4 | 0.00 | 0.00 | 0.00 | 81 | 1012.5 |
| 20260505182142 | 52 | 38 | 4.3 | 10.4 | 0.00 | 0.00 | 0.00 | 81 | 1012.4 |
| 20260505181201 | 52 | 36 | 4.3 | 10.4 | 0.00 | 0.00 | 0.00 | 80 | 1012.4 |
| 20260505180147 | 53 | 39 | 4.3 | 9.6 | 0.00 | 0.00 | 0.00 | 79 | 1012.5 |
| 20260505175152 | 53 | 5 | 5.2 | 11.3 | 0.00 | 0.00 | 0.00 | 78 | 1012.5 |
| 20260505174151 | 54 | 333 | 5.2 | 13.9 | 0.00 | 0.00 | 0.00 | 78 | 1012.4 |
| 20260505172018 | 55 | 44 | 5.2 | 11.3 | 0.00 | 0.00 | 0.00 | 75 | 1012.4 |
| 20260505171014 | 55 | 36 | 5.2 | 11.3 | 0.00 | 0.00 | 0.00 | 74 | 1012.4 |
| 20260505170000 | 55 | 15 | 5.2 | 11.3 | 0.00 | 0.00 | 0.00 | 74 | 1012.4 |
| 20260505165021 | 55 | 30 | 4.3 | 9.6 | 0.00 | 0.00 | 0.00 | 73 | 1012.4 |
| 20260505164012 | 56 | 336 | 5.2 | 12.2 | 0.00 | 0.00 | 0.00 | 73 | 1012.3 |
| 20260505163028 | 56 | 355 | 5.2 | 12.2 | 0.00 | 0.00 | 0.00 | 72 | 1012.2 |
| 20260505162026 | 56 | 350 | 6.1 | 12.2 | 0.00 | 0.00 | 0.00 | 72 | 1012.2 |
| 20260505160953 | 57 | 42 | 6.1 | 12.2 | 0.00 | 0.00 | 0.00 | 72 | 1012.2 |
| 20260505152954 | 58 | 36 | 5.2 | 11.3 | 0.00 | 0.00 | 0.00 | 70 | 1012.3 |
| 20260505151944 | 58 | 9 | 5.2 | 11.3 | 0.00 | 0.00 | 0.00 | 70 | 1012.3 |
| 20260505140654 | 61 | 37 | 4.3 | 12.2 | 0.00 | 0.00 | 0.00 | 68 | 1012.4 |
| 20260505123459 | 63 | 26 | 3.5 | 10.4 | 0.00 | 0.00 | 0.00 | 66 | 1012.2 |
| 20260505122454 | 63 | 350 | 4.3 | 10.4 | 0.00 | 0.00 | 0.00 | 64 | 1012.3 |
| 20260505121426 | 64 | 316 | 3.5 | 10.4 | 0.00 | 0.00 | 0.00 | 67 | 1012.2 |
| 20260505120450 | 63 | 309 | 4.3 | 10.4 | 0.00 | 0.00 | 0.00 | 70 | 1012.2 |
| 20260505115456 | 62 | 10 | 3.5 | 10.4 | 0.00 | 0.00 | 0.00 | 71 | 1012.2 |
| 20260505114423 | 61 | 11 | 3.5 | 10.4 | 0.00 | 0.00 | 0.00 | 71 | 1012.2 |